sat.trackr.live / text

‹ back to catalog

STARLINK-31247

NORAD 59206 · 2024-046F

PAYLOAD ACTIVE UNKNOWN

§ Identity

Operator
Country
US
Launch date
2024-03-11
Launch site
AFWTR
Launch vehicle
Mass (kg)
RCS (m²)

Purposes: comms

External: N2YO · Heavens-Above · Gunter

§ Orbital elements

Epoch: 2026-09-20T10:19:37.143264Z

Period
93.85 min
Inclination
53.1610°
Eccentricity
0.0001278
Mean motion
15.34395697 rev/d
Perigee alt
461.8 km
Apogee alt
463.6 km
Semi-major
6,840.9 km
B*
5.2237e-5
RAAN
330.1921°
Arg perigee
97.4202°
Mean anomaly
262.6946°
Rev number
14,287

§ Raw data

STARLINK-312471 59206U 24046F   26263.43029101  .00001389  00000+0  52237-4 0  99902 59206  53.1610 330.1921 0001278  97.4202 262.6946 15.34395697142870

JSON: /api/v1/satellites/59206 · /tle

For live sub-satellite position, see the globe view (requires WebGL).

§ Visibility from observer

Set your observer location to see the next 7 days of passes ≥ 10°. The values pass through the URL so the page stays shareable.

No JS? Fill the form by hand. The geolocation button needs JavaScript.